Code 3 Bans

Search by SteamID or username.
Click a SteamID to see all bans related to it.
The current server time is 12:08:36 PM.

ID Name SteamID profile Reason Date banned Date lifted Banned by
28905Never Miss HitSTEAM_0:0:65352098Steam Profile linkCheating9/22/2020 1:30 PMNeverConsole
28904a nounSTEAM_0:1:97219540Steam Profile linkAttempting to bypass a current/existing ban. Main Acct: STEAM_0:1:972195409/13/2020 3:22 PMNeverConsole
28903Invalid UserSTEAM_0:0:564990614Steam Profile linkAttempting to bypass a current/existing ban. Main Acct: STEAM_0:1:972195409/13/2020 3:22 PMNeverConsole
28902russell8=DSTEAM_0:1:509100650Steam Profile linkSpamming the Radio8/9/2020 8:55 PM8/9/2020 9:05 PM[C3] SgtMaexx
28901Sarah Jingle O_OSTEAM_0:1:557994419Steam Profile linkDA to avoid ban, main STEAM_0:1:5066258848/9/2020 5:04 PMNever[C3] Goigle
28900jennifer.meiselSTEAM_0:0:558775791Steam Profile linkAttempting to bypass a current/existing ban.8/9/2020 4:03 PMNeverConsole
28899JaceSTEAM_0:1:554829975Steam Profile linkAttempting to bypass a current/existing ban.8/9/2020 4:03 PMNeverConsole
28898JaceSTEAM_0:1:554829975Steam Profile linkHacking, needs to be extended8/9/2020 3:59 PM8/10/2020 3:59 PM[C3:M] ICollectStamps3
28897BrownSTEAM_0:0:195084671Steam Profile linkCheating8/8/2020 11:39 PMNeverConsole
28896helooo?STEAM_0:0:189095143Steam Profile linkCheating8/8/2020 11:25 PMNeverConsole
28895Ethinox_STEAM_0:1:506625884Steam Profile linkCheating8/8/2020 10:59 PMNeverConsole
28894uwuSTEAM_0:1:124275157Steam Profile linkCheating8/8/2020 9:39 PMNeverConsole
28893JaceSTEAM_0:1:161931231Steam Profile linkAttempting to bypass a current/existing ban.8/8/2020 8:12 PMNeverConsole
28892Obamas Last NameSTEAM_0:0:538882170Steam Profile linkAttempting to bypass a current/existing ban.8/8/2020 8:12 PMNeverConsole
28891JaceSTEAM_0:1:161931231Steam Profile linkCheating8/8/2020 8:05 PMNeverConsole
28889Keres NyaSTEAM_0:0:103736714Steam Profile linkDC During Sit8/1/2020 3:24 PM8/1/2020 8:24 PM[C3] SgtMaexx
28888ryuzoooSTEAM_0:1:123231623Steam Profile linkCheating7/31/2020 7:50 PMNeverConsole
28887[C3] SgtMaexx?STEAM_0:1:96311456Steam Profile linkHow do i ban people?7/20/2020 7:37 PM7/20/2020 7:38 PM[C3] SgtMaexx
28885JohnyBravoSTEAM_0:0:553053205Steam Profile linkCheating7/19/2020 11:50 AMNeverConsole
28884gameknight99939STEAM_0:0:510026223Steam Profile linkCdm; Not here to play the game7/17/2020 2:56 PM7/18/2020 2:56 PM[C3:M] Peek
28883¤???n???STEAM_0:1:97955471Steam Profile linkCheating7/12/2020 3:08 PMNeverConsole
28882CryptogenicSTEAM_0:0:117305393Steam Profile linkDC to avoid Punishment7/5/2020 7:11 PM7/5/2020 7:21 PM[C3] SgtMaexx
28881nicSTEAM_0:1:105580070Steam Profile linkCheating7/1/2020 2:30 PMNeverConsole
28880TaykSTEAM_0:1:99480997Steam Profile linkDA to avoid ban - reduced6/19/2020 9:45 AM6/19/2020 9:46 AM[C3] Goigle
28879Chief Kickabitch, Slapahoe TribeSTEAM_0:0:214826497Steam Profile linkShooting teammates cars, not Cooping, DC during sit6/18/2020 8:18 PM6/18/2020 10:18 PM[C3] SgtMaexx
28878anthonySTEAM_0:1:83630825Steam Profile linkAttempting to bypass a current/existing ban.6/18/2020 7:41 PMNeverConsole
28877JewyDewySTEAM_0:1:102147820Steam Profile linkAttempting to bypass a current/existing ban.6/18/2020 7:41 PMNeverConsole
28876anthonySTEAM_0:1:83630825Steam Profile linkCheating6/18/2020 7:32 PMNeverConsole
28874spidermancat54STEAM_0:0:539706690Steam Profile linkAttempting to bypass a current/existing ban. Main Acct: STEAM_0:0:5397066906/5/2020 4:50 PMNeverConsole
28873Invalid UserSTEAM_0:0:526405507Steam Profile linkAttempting to bypass a current/existing ban. Main Acct: STEAM_0:0:5397066906/5/2020 4:50 PMNeverConsole
28872?STEAM_0:0:533447955Steam Profile linkCheating5/26/2020 10:54 PMNeverConsole
28870tomek4312STEAM_0:1:215660672Steam Profile linkCheating5/16/2020 4:18 AMNeverConsole
28869natrain10STEAM_0:0:176081660Steam Profile linkshooting car after robber confirmed not wanted, running away from sit(physgun broken could not freeze), disconnect during sit5/15/2020 6:37 PM5/18/2020 6:37 PM[C3]The_Liquor
28867rxsmSTEAM_0:0:79476562Steam Profile linkReduced - Cheating5/11/2020 1:55 PM5/11/2020 1:56 PM[C3] Goigle
28866GrizzBearSTEAM_0:1:515041211Steam Profile linkAfter being unjailed immediedly shot his teammates car's5/10/2020 8:18 PM5/11/2020 8:18 PM[C3:M] Peek
You can protest your ban by making an appeal on the forums.